When you browse on this site, cookies collect data to enhance your experience and personalize the content and advertising you see.
Visit our Privacy Policy to learn more. By continuing to use the site, you agree to this use of cookies and data.
  • In Netherlands
  • List of Countries
  • For 7 days
  • Water Temperature
  • Satellite Maps
  • Weather Map
  • Weather Widgets
  • user-avatar
    Login

    Hourly Weather Głowno

    Today, 25 April, Thursday

    Time Temperature Precipitation Wind Pressure Humidity
    00:00 +14°C° 0 mm 5 mps 749 mmHg 76%
    01:00 +14°C° 0 mm 5 mps 749 mmHg 76%
    02:00 +13°C° 0 mm 5 mps 749 mmHg 78%
    03:00 +13°C° 0 mm 5 mps 748 mmHg 81%
    04:00 +12°C° 0 mm 5 mps 748 mmHg 83%
    05:00 +14°C° 0 mm 5 mps 748 mmHg 80%
    06:00 +15°C° 0 mm 5 mps 748 mmHg 76%
    07:00 +16°C° 0 mm 5 mps 748 mmHg 73%
    08:00 +19°C° 0 mm 5 mps 748 mmHg 66%
    09:00 +20°C° 0 mm 5 mps 748 mmHg 60%
    10:00 +22°C° 0 mm 5 mps 748 mmHg 54%
    11:00 +23°C° 0 mm 5 mps 748 mmHg 52%
    12:00 +23°C° 0 mm 5 mps 748 mmHg 51%
    13:00 +25°C° 0 mm 5 mps 748 mmHg 49%
    14:00 +25°C° 0 mm 4 mps 748 mmHg 49%
    15:00 +25°C° 0 mm 4 mps 748 mmHg 49%
    16:00 +25°C° 0 mm 3 mps 748 mmHg 49%
    17:00 +24°C° 0 mm 3 mps 748 mmHg 54%
    18:00 +21°C° 0 mm 2 mps 748 mmHg 60%
    19:00 +20°C° 0 mm 1 mps 748 mmHg 65%
    20:00 +19°C° 0 mm 2 mps 748 mmHg 68%
    21:00 +18°C° 0 mm 2 mps 748 mmHg 70%
    22:00 +17°C° 0 mm 2 mps 748 mmHg 73%
    23:00 +17°C° 0 mm 2 mps 748 mmHg 74%

    Tomorrow, 26 April, Friday

    Time Temperature Precipitation Wind Pressure Humidity
    00:00 +16°C° 0 mm 2 mps 748 mmHg 74%
    01:00 +16°C° 0 mm 3 mps 748 mmHg 75%
    02:00 +14°C° 0 mm 3 mps 747 mmHg 75%
    03:00 +14°C° 0 mm 3 mps 747 mmHg 75%
    04:00 +14°C° 0 mm 3 mps 747 mmHg 75%
    05:00 +16°C° 0 mm 3 mps 746 mmHg 72%
    06:00 +17°C° 0 mm 4 mps 746 mmHg 69%
    07:00 +19°C° 0 mm 4 mps 746 mmHg 66%
    08:00 +20°C° 0 mm 4 mps 745 mmHg 60%
    09:00 +22°C° 0 mm 5 mps 745 mmHg 54%
    10:00 +25°C° 0 mm 5 mps 745 mmHg 49%
    11:00 +25°C° 0 mm 5 mps 744 mmHg 46%
    12:00 +26°C° 0 mm 5 mps 744 mmHg 44%
    13:00 +27°C° 0 mm 4 mps 744 mmHg 42%
    14:00 +27°C° 0 mm 4 mps 743 mmHg 42%
    15:00 +27°C° 0 mm 4 mps 743 mmHg 42%
    16:00 +27°C° 0 mm 3 mps 743 mmHg 42%
    17:00 +25°C° 0 mm 3 mps 742 mmHg 47%
    18:00 +23°C° 0 mm 2 mps 742 mmHg 52%
    19:00 +21°C° 0 mm 2 mps 742 mmHg 57%
    20:00 +21°C° 0 mm 3 mps 742 mmHg 56%
    21:00 +20°C° 0 mm 3 mps 742 mmHg 56%
    22:00 +20°C° 0 mm 4 mps 742 mmHg 55%
    23:00 +19°C° 0 mm 4 mps 742 mmHg 58%

    Day after tomorrow, 27 April, Saturday

    Time Temperature Precipitation Wind Pressure Humidity
    00:00 +19°C° 0 mm 4 mps 742 mmHg 60%
    01:00 +18°C° 0 mm 4 mps 742 mmHg 63%
    02:00 +16°C° 0 mm 5 mps 742 mmHg 70%
    03:00 +15°C° 0 mm 5 mps 742 mmHg 77%
    04:00 +15°C° 0 mm 6 mps 743 mmHg 84%
    05:00 +14°C° 0 mm 7 mps 743 mmHg 83%
    06:00 +14°C° 0 mm 7 mps 744 mmHg 81%
    07:00 +14°C° 0 mm 7 mps 744 mmHg 79%
    08:00 +14°C° 0 mm 7 mps 745 mmHg 77%
    09:00 +14°C° 0 mm 7 mps 745 mmHg 75%
    10:00 +15°C° 0 mm 7 mps 745 mmHg 72%
    11:00 +15°C° 0 mm 7 mps 746 mmHg 71%
    12:00 +15°C° 0 mm 6 mps 746 mmHg 70%
    13:00 +15°C° 0 mm 6 mps 746 mmHg 69%
    14:00 +15°C° 0 mm 5 mps 746 mmHg 69%
    15:00 +14°C° 0 mm 5 mps 746 mmHg 69%
    16:00 +14°C° 0 mm 5 mps 746 mmHg 70%
    17:00 +14°C° 0 mm 4 mps 746 mmHg 72%
    18:00 +13°C° 0 mm 3 mps 746 mmHg 74%
    19:00 +13°C° 0 mm 3 mps 746 mmHg 76%
    20:00 +12°C° 0 mm 3 mps 746 mmHg 77%
    21:00 +12°C° 0 mm 3 mps 747 mmHg 77%
    22:00 +12°C° 0 mm 3 mps 747 mmHg 78%
    23:00 +11°C° 0 mm 3 mps 747 mmHg 79%

    28 April, Sunday

    Time Temperature Precipitation Wind Pressure Humidity
    00:00 +11°C° 0 mm 3 mps 747 mmHg 80%
    01:00 +10°C° 0 mm 3 mps 747 mmHg 82%
    02:00 +10°C° 0.1 mm 3 mps 747 mmHg 79%
    03:00 +10°C° 0.1 mm 3 mps 748 mmHg 77%
    04:00 +9°C° 0.1 mm 3 mps 748 mmHg 75%
    05:00 +9°C° 0.5 mm 3 mps 748 mmHg 77%
    06:00 +8°C° 0.5 mm 4 mps 748 mmHg 78%
    07:00 +8°C° 0.5 mm 4 mps 748 mmHg 79%
    08:00 +8°C° 0.1 mm 4 mps 748 mmHg 78%
    09:00 +9°C° 0.1 mm 5 mps 748 mmHg 76%
    10:00 +9°C° 0.1 mm 5 mps 748 mmHg 75%
    11:00 +9°C° 0.8 mm 5 mps 748 mmHg 77%
    12:00 +9°C° 0.8 mm 5 mps 748 mmHg 79%
    13:00 +9°C° 0.8 mm 5 mps 748 mmHg 81%
    14:00 +9°C° 0.8 mm 5 mps 748 mmHg 82%
    15:00 +10°C° 0.8 mm 5 mps 748 mmHg 82%
    16:00 +10°C° 0.8 mm 5 mps 748 mmHg 83%
    17:00 +11°C° 0.3 mm 4 mps 748 mmHg 86%
    18:00 +11°C° 0.3 mm 4 mps 748 mmHg 89%
    19:00 +11°C° 0.3 mm 3 mps 748 mmHg 92%
    20:00 +11°C° 0.1 mm 3 mps 748 mmHg 93%
    21:00 +11°C° 0.1 mm 3 mps 748 mmHg 95%
    22:00 +11°C° 0.1 mm 3 mps 748 mmHg 97%
    23:00 +11°C° 0.4 mm 3 mps 748 mmHg 97%

    29 April, Monday

    Time Temperature Precipitation Wind Pressure Humidity
    00:00 +11°C° 0.4 mm 3 mps 748 mmHg 97%
    01:00 +11°C° 0.4 mm 3 mps 748 mmHg 97%
    02:00 +12°C° 0.7 mm 4 mps 747 mmHg 96%
    03:00 +12°C° 0.7 mm 5 mps 747 mmHg 94%
    04:00 +12°C° 0.7 mm 5 mps 747 mmHg 93%
    05:00 +11°C° 0.1 mm 6 mps 747 mmHg 92%
    06:00 +11°C° 0.1 mm 6 mps 747 mmHg 91%
    07:00 +11°C° 0.1 mm 6 mps 747 mmHg 90%
    08:00 +11°C° 0.2 mm 6 mps 748 mmHg 89%
    09:00 +10°C° 0.2 mm 6 mps 748 mmHg 88%
    10:00 +10°C° 0.2 mm 7 mps 748 mmHg 88%
    11:00 +10°C° 0.5 mm 6 mps 748 mmHg 87%
    12:00 +10°C° 0.5 mm 6 mps 748 mmHg 86%
    13:00 +10°C° 0.5 mm 6 mps 748 mmHg 85%
    14:00 +11°C° 0 mm 6 mps 748 mmHg 83%
    15:00 +11°C° 0 mm 6 mps 748 mmHg 81%
    16:00 +11°C° 0 mm 6 mps 748 mmHg 79%
    17:00 +10°C° 0 mm 6 mps 748 mmHg 81%
    18:00 +10°C° 0 mm 5 mps 749 mmHg 82%
    19:00 +10°C° 0 mm 4 mps 749 mmHg 84%
    20:00 +10°C° 0 mm 4 mps 749 mmHg 83%
    21:00 +8°C° 0 mm 4 mps 750 mmHg 83%
    22:00 +8°C° 0 mm 5 mps 750 mmHg 82%
    23:00 +8°C° 0 mm 4 mps 750 mmHg 82%

    30 April, Tuesday

    Time Temperature Precipitation Wind Pressure Humidity
    00:00 +7°C° 0 mm 4 mps 750 mmHg 82%
    01:00 +7°C° 0 mm 4 mps 750 mmHg 82%
    02:00 +6°C° 0 mm 5 mps 751 mmHg 81%
    03:00 +6°C° 0 mm 5 mps 751 mmHg 79%
    04:00 +5°C° 0 mm 5 mps 751 mmHg 78%
    05:00 +6°C° 0 mm 5 mps 751 mmHg 74%
    06:00 +7°C° 0 mm 6 mps 751 mmHg 71%
    07:00 +6°C° 0 mm 7 mps 752 mmHg 67%
    08:00 +8°C° 0 mm 7 mps 752 mmHg 62%
    09:00 +10°C° 0 mm 7 mps 752 mmHg 56%
    10:00 +11°C° 0 mm 7 mps 752 mmHg 51%
    11:00 +12°C° 0 mm 7 mps 752 mmHg 49%
    12:00 +13°C° 0 mm 6 mps 752 mmHg 47%
    13:00 +14°C° 0 mm 6 mps 752 mmHg 45%
    14:00 +14°C° 0 mm 6 mps 751 mmHg 46%
    15:00 +14°C° 0 mm 6 mps 751 mmHg 46%
    16:00 +14°C° 0 mm 5 mps 751 mmHg 46%
    17:00 +13°C° 0 mm 5 mps 751 mmHg 51%
    18:00 +11°C° 0 mm 4 mps 751 mmHg 56%
    19:00 +10°C° 0 mm 3 mps 751 mmHg 61%
    20:00 +9°C° 0 mm 3 mps 751 mmHg 62%
    21:00 +8°C° 0 mm 3 mps 752 mmHg 62%
    22:00 +7°C° 0 mm 3 mps 752 mmHg 63%
    23:00 +5°C° 0 mm 3 mps 752 mmHg 65%
    Show more